Time,TemperatureF,DewpointF,PressureIn,WindDirection,WindDirectionDegrees,WindSpeedMPH,WindSpeedGustMPH,Humidity,HourlyPrecipIn,Conditions,Clouds,dailyrainin,SoftwareType,DateUTC
2013-02-28 00:00:00,19.2,0.4,27.61,WNW,298,3.6,3.6,43,0.00,,---,0.00,VWS V14.01,2013-02-28 06:00:00,
2013-02-28 00:05:00,19.6,0.7,27.61,WNW,298,2.7,2.7,43,0.00,,---,0.00,VWS V14.01,2013-02-28 06:05:00,
2013-02-28 00:10:00,19.9,1.1,27.61,NW,307,4.0,4.0,43,0.00,,---,0.00,VWS V14.01,2013-02-28 06:10:00,
2013-02-28 00:15:00,20.3,1.4,27.61,NW,310,2.7,3.1,43,0.00,,---,0.00,VWS V14.01,2013-02-28 06:15:00,
2013-02-28 00:20:00,20.3,1.4,27.61,NW,315,2.7,6.3,43,0.00,,---,0.00,VWS V14.01,2013-02-28 06:20:00,
2013-02-28 00:25:00,20.8,1.9,27.61,NNW,327,3.6,3.6,43,0.00,,---,0.00,VWS V14.01,2013-02-28 06:25:00,
2013-02-28 00:30:00,20.7,1.7,27.58,NW,305,3.1,3.6,43,0.00,,---,0.00,VWS V14.01,2013-02-28 06:30:00,
2013-02-28 00:35:00,20.8,1.9,27.58,WNW,300,3.6,3.6,43,0.00,,---,0.00,VWS V14.01,2013-02-28 06:35:00,
2013-02-28 00:40:00,21.0,2.0,27.58,WNW,294,3.1,3.1,43,0.00,,---,0.00,VWS V14.01,2013-02-28 06:40:00,
2013-02-28 00:45:00,21.0,2.0,27.58,WNW,296,3.6,3.6,43,0.00,,---,0.00,VWS V14.01,2013-02-28 06:45:00,
2013-02-28 00:50:00,20.7,1.7,27.58,NW,309,2.2,2.2,43,0.00,,---,0.00,VWS V14.01,2013-02-28 06:50:00,
2013-02-28 00:55:00,20.3,1.4,27.58,WNW,288,0.0,4.0,43,0.00,,---,0.00,VWS V14.01,2013-02-28 06:55:00,
2013-02-28 01:00:00,19.0,0.2,27.58,WNW,288,4.0,4.0,43,0.00,,---,0.00,VWS V14.01,2013-02-28 07:00:00,
2013-02-28 01:05:00,18.7,-0.1,27.58,WNW,293,4.0,4.0,43,0.00,,---,0.00,VWS V14.01,2013-02-28 07:05:00,
2013-02-28 01:10:00,19.0,0.2,27.58,WNW,289,4.0,4.0,43,0.00,,---,0.00,VWS V14.01,2013-02-28 07:10:00,
2013-02-28 01:15:00,18.3,-0.4,27.61,WNW,288,2.7,2.7,43,0.00,,---,0.00,VWS V14.01,2013-02-28 07:15:00,
2013-02-28 01:20:00,18.1,-0.6,27.61,WNW,288,3.1,3.1,43,0.00,,---,0.00,VWS V14.01,2013-02-28 07:20:00,
2013-02-28 01:25:00,18.0,-0.8,27.61,WNW,290,4.0,4.0,43,0.00,,---,0.00,VWS V14.01,2013-02-28 07:25:00,
2013-02-28 01:30:00,17.6,-0.6,27.61,WNW,290,2.2,3.1,44,0.00,,---,0.00,VWS V14.01,2013-02-28 07:30:00,
2013-02-28 01:35:00,17.1,-1.1,27.61,WNW,290,2.2,2.2,44,0.00,,---,0.00,VWS V14.01,2013-02-28 07:35:00,
2013-02-28 01:40:00,17.4,-0.8,27.61,WNW,290,3.6,3.6,44,0.00,,---,0.00,VWS V14.01,2013-02-28 07:40:00,
2013-02-28 01:45:00,17.8,-0.4,27.61,WNW,291,5.4,5.4,44,0.00,,---,0.00,VWS V14.01,2013-02-28 07:45:00,
2013-02-28 01:50:00,18.0,-0.3,27.61,WNW,294,3.6,3.6,44,0.00,,---,0.00,VWS V14.01,2013-02-28 07:50:00,
2013-02-28 01:55:00,17.8,-0.4,27.61,WNW,291,3.6,4.0,44,0.00,,---,0.00,VWS V14.01,2013-02-28 07:55:00,
2013-02-28 02:00:00,17.6,-0.6,27.61,WNW,289,4.0,4.0,44,0.00,,---,0.00,VWS V14.01,2013-02-28 08:00:00,
2013-02-28 02:05:00,17.6,-0.6,27.61,WNW,289,3.6,3.6,44,0.00,,---,0.00,VWS V14.01,2013-02-28 08:05:00,
2013-02-28 02:10:00,17.4,-0.8,27.61,WNW,293,4.0,4.0,44,0.00,,---,0.00,VWS V14.01,2013-02-28 08:10:00,
2013-02-28 02:15:00,17.4,-0.8,27.61,WNW,293,2.7,2.7,44,0.00,,---,0.00,VWS V14.01,2013-02-28 08:15:00,
2013-02-28 02:20:00,17.2,-0.9,27.61,WNW,293,2.7,3.1,44,0.00,,---,0.00,VWS V14.01,2013-02-28 08:20:00,
2013-02-28 02:25:00,16.9,-1.2,27.61,WNW,291,2.7,3.1,44,0.00,,---,0.00,VWS V14.01,2013-02-28 08:25:00,
2013-02-28 02:30:00,17.2,-0.9,27.61,WNW,288,2.7,2.7,44,0.00,,---,0.00,VWS V14.01,2013-02-28 08:30:00,
2013-02-28 02:35:00,17.6,-0.6,27.61,WNW,289,2.7,2.7,44,0.00,,---,0.00,VWS V14.01,2013-02-28 08:35:00,
2013-02-28 02:40:00,17.6,-0.6,27.61,WNW,289,3.6,3.6,44,0.00,,---,0.00,VWS V14.01,2013-02-28 08:40:00,
2013-02-28 02:45:00,17.6,-0.6,27.61,WNW,289,2.7,2.7,44,0.00,,---,0.00,VWS V14.01,2013-02-28 08:45:00,
2013-02-28 02:50:00,17.6,-0.6,27.61,WNW,288,3.1,3.1,44,0.00,,---,0.00,VWS V14.01,2013-02-28 08:50:00,
2013-02-28 02:55:00,17.8,-0.4,27.61,West,275,3.6,3.6,44,0.00,,---,0.00,VWS V14.01,2013-02-28 08:55:00,
2013-02-28 03:00:00,18.5,0.2,27.61,WNW,283,3.6,3.6,44,0.00,,---,0.00,VWS V14.01,2013-02-28 09:00:00,
2013-02-28 03:05:00,18.7,0.4,27.61,WNW,284,2.2,2.7,44,0.00,,---,0.00,VWS V14.01,2013-02-28 09:05:00,
2013-02-28 03:10:00,19.2,0.9,27.61,WNW,293,4.0,4.0,44,0.00,,---,0.00,VWS V14.01,2013-02-28 09:10:00,
2013-02-28 03:15:00,20.1,1.2,27.61,WNW,293,5.4,5.4,43,0.00,,---,0.00,VWS V14.01,2013-02-28 09:15:00,
2013-02-28 03:20:00,20.3,1.4,27.61,NW,304,4.0,4.0,43,0.00,,---,0.00,VWS V14.01,2013-02-28 09:20:00,
2013-02-28 03:25:00,20.3,1.4,27.61,NW,315,4.9,4.9,43,0.00,,---,0.00,VWS V14.01,2013-02-28 09:25:00,
2013-02-28 03:30:00,20.7,1.7,27.61,NW,307,4.0,5.4,43,0.00,,---,0.00,VWS V14.01,2013-02-28 09:30:00,
2013-02-28 03:35:00,20.7,1.7,27.61,WNW,293,3.1,3.1,43,0.00,,---,0.00,VWS V14.01,2013-02-28 09:35:00,
2013-02-28 03:40:00,20.7,1.7,27.61,NW,311,4.0,4.0,43,0.00,,---,0.00,VWS V14.01,2013-02-28 09:40:00,
2013-02-28 03:45:00,20.7,1.7,27.61,WNW,296,5.8,5.8,43,0.00,,---,0.00,VWS V14.01,2013-02-28 09:45:00,
2013-02-28 03:50:00,20.5,1.5,27.61,WNW,301,3.1,4.9,43,0.00,,---,0.00,VWS V14.01,2013-02-28 09:50:00,
2013-02-28 03:55:00,20.5,1.5,27.61,WNW,297,3.1,3.1,43,0.00,,---,0.00,VWS V14.01,2013-02-28 09:55:00,
2013-02-28 04:00:00,20.3,1.4,27.61,NW,312,4.0,4.0,43,0.00,,---,0.00,VWS V14.01,2013-02-28 10:00:00,
2013-02-28 04:05:00,20.7,1.7,27.61,NW,312,4.0,4.0,43,0.00,,---,0.00,VWS V14.01,2013-02-28 10:05:00,
2013-02-28 04:10:00,20.8,1.9,27.61,NW,312,4.0,4.0,43,0.00,,---,0.00,VWS V14.01,2013-02-28 10:10:00,
2013-02-28 04:15:00,21.2,2.2,27.61,NW,312,4.0,4.0,43,0.00,,---,0.00,VWS V14.01,2013-02-28 10:15:00,
2013-02-28 04:20:00,21.7,2.7,27.61,NNW,334,6.3,6.3,43,0.00,,---,0.00,VWS V14.01,2013-02-28 10:20:00,
2013-02-28 04:25:00,20.7,1.7,27.61,NNW,334,6.3,6.3,43,0.00,,---,0.00,VWS V14.01,2013-02-28 10:25:00,
2013-02-28 04:30:00,19.6,0.7,27.61,WNW,293,5.8,5.8,43,0.00,,---,0.00,VWS V14.01,2013-02-28 10:30:00,
2013-02-28 04:35:00,19.0,0.2,27.61,WNW,291,4.9,4.9,43,0.00,,---,0.00,VWS V14.01,2013-02-28 10:35:00,
2013-02-28 04:40:00,18.5,-0.3,27.61,WNW,292,3.6,5.4,43,0.00,,---,0.00,VWS V14.01,2013-02-28 10:40:00,
2013-02-28 04:45:00,18.0,-0.8,27.61,WNW,290,4.9,4.9,43,0.00,,---,0.00,VWS V14.01,2013-02-28 10:45:00,
2013-02-28 04:50:00,17.4,-0.8,27.61,WNW,289,2.7,2.7,44,0.00,,---,0.00,VWS V14.01,2013-02-28 10:50:00,
2013-02-28 04:55:00,17.4,-0.8,27.61,WNW,289,0.0,0.0,44,0.00,,---,0.00,VWS V14.01,2013-02-28 10:55:00,
2013-02-28 05:00:00,16.5,-1.6,27.61,WNW,289,2.2,2.2,44,0.00,,---,0.00,VWS V14.01,2013-02-28 11:00:00,
2013-02-28 05:05:00,16.7,-1.4,27.61,WNW,289,2.7,2.7,44,0.00,,---,0.00,VWS V14.01,2013-02-28 11:05:00,
2013-02-28 05:10:00,16.5,-1.6,27.61,WNW,289,0.0,0.0,44,0.00,,---,0.00,VWS V14.01,2013-02-28 11:10:00,
2013-02-28 05:15:00,16.5,-1.6,27.61,WNW,289,3.1,3.6,44,0.00,,---,0.00,VWS V14.01,2013-02-28 11:15:00,
2013-02-28 05:20:00,17.1,-1.1,27.61,WNW,289,2.2,3.1,44,0.00,,---,0.00,VWS V14.01,2013-02-28 11:20:00,
2013-02-28 05:25:00,17.2,-0.9,27.61,WNW,289,4.0,4.0,44,0.00,,---,0.00,VWS V14.01,2013-02-28 11:25:00,
2013-02-28 05:30:00,17.1,-1.1,27.61,WNW,289,3.6,3.6,44,0.00,,---,0.00,VWS V14.01,2013-02-28 11:30:00,
2013-02-28 05:35:00,17.1,-1.1,27.61,WNW,289,2.7,2.7,44,0.00,,---,0.00,VWS V14.01,2013-02-28 11:35:00,
2013-02-28 05:40:00,17.1,-1.1,27.61,WNW,289,0.0,0.0,44,0.00,,---,0.00,VWS V14.01,2013-02-28 11:40:00,
2013-02-28 05:45:00,16.2,-1.9,27.61,WNW,289,0.0,0.0,44,0.00,,---,0.00,VWS V14.01,2013-02-28 11:45:00,
2013-02-28 05:50:00,15.3,-2.7,27.61,WNW,289,0.0,0.0,44,0.00,,---,0.00,VWS V14.01,2013-02-28 11:50:00,
2013-02-28 05:55:00,15.3,-2.7,27.61,WNW,289,0.0,0.0,44,0.00,,---,0.00,VWS V14.01,2013-02-28 11:55:00,
2013-02-28 06:00:00,15.1,-2.9,27.61,WNW,289,0.0,0.0,44,0.00,,---,0.00,VWS V14.01,2013-02-28 12:00:00,
2013-02-28 06:05:00,14.7,-3.2,27.61,WNW,289,0.0,0.0,44,0.00,,---,0.00,VWS V14.01,2013-02-28 12:05:00,
2013-02-28 06:10:00,14.9,-2.6,27.61,WNW,289,0.0,0.0,45,0.00,,---,0.00,VWS V14.01,2013-02-28 12:10:00,
2013-02-28 06:15:00,14.5,-2.9,27.61,WNW,289,2.7,3.1,45,0.00,,---,0.00,VWS V14.01,2013-02-28 12:15:00,
2013-02-28 06:20:00,14.5,-2.9,27.61,WNW,289,2.7,2.7,45,0.00,,---,0.00,VWS V14.01,2013-02-28 12:20:00,
2013-02-28 06:25:00,14.5,-2.9,27.61,WNW,289,2.7,2.7,45,0.00,,---,0.00,VWS V14.01,2013-02-28 12:25:00,
2013-02-28 06:30:00,14.4,-3.1,27.61,WNW,289,3.1,3.1,45,0.00,,---,0.00,VWS V14.01,2013-02-28 12:30:00,
2013-02-28 06:35:00,14.2,-3.2,27.61,WNW,289,2.2,2.7,45,0.00,,---,0.00,VWS V14.01,2013-02-28 12:35:00,
2013-02-28 06:40:00,13.8,-3.6,27.61,WNW,289,0.0,0.0,45,0.00,,---,0.00,VWS V14.01,2013-02-28 12:40:00,
2013-02-28 06:45:00,13.8,-3.6,27.64,WNW,289,0.0,0.0,45,0.00,,---,0.00,VWS V14.01,2013-02-28 12:45:00,
2013-02-28 06:50:00,13.8,-3.6,27.64,WNW,289,2.2,3.1,45,0.00,,---,0.00,VWS V14.01,2013-02-28 12:50:00,
2013-02-28 06:55:00,14.2,-3.7,27.64,WNW,289,2.7,2.7,44,0.00,,---,0.00,VWS V14.01,2013-02-28 12:55:00,
2013-02-28 07:00:00,14.7,-3.2,27.64,WNW,289,2.7,2.7,44,0.00,,---,0.00,VWS V14.01,2013-02-28 13:00:00,
2013-02-28 07:05:00,14.5,-3.4,27.64,WNW,289,0.0,0.0,44,0.00,,---,0.00,VWS V14.01,2013-02-28 13:05:00,
2013-02-28 07:10:00,14.2,-3.7,27.64,WNW,289,0.0,2.2,44,0.00,,---,0.00,VWS V14.01,2013-02-28 13:10:00,
2013-02-28 07:15:00,13.8,-3.6,27.64,WNW,289,3.1,3.1,45,0.00,,---,0.00,VWS V14.01,2013-02-28 13:15:00,
2013-02-28 07:20:00,13.8,-3.6,27.64,WNW,289,3.6,3.6,45,0.00,,---,0.00,VWS V14.01,2013-02-28 13:20:00,
2013-02-28 07:25:00,14.0,-3.4,27.64,WNW,289,2.2,2.7,45,0.00,,---,0.00,VWS V14.01,2013-02-28 13:25:00,
2013-02-28 07:30:00,14.2,-3.7,27.64,WNW,289,3.6,3.6,44,0.00,,---,0.00,VWS V14.01,2013-02-28 13:30:00,
2013-02-28 07:35:00,14.2,-3.7,27.64,WNW,289,3.6,3.6,44,0.00,,---,0.00,VWS V14.01,2013-02-28 13:35:00,
2013-02-28 07:40:00,15.4,-2.6,27.64,WNW,289,2.7,2.7,44,0.00,,---,0.00,VWS V14.01,2013-02-28 13:40:00,
2013-02-28 07:45:00,15.8,-2.2,27.64,WNW,289,4.9,4.9,44,0.00,,---,0.00,VWS V14.01,2013-02-28 13:45:00,
2013-02-28 07:50:00,16.0,-2.1,27.64,WNW,292,4.0,4.9,44,0.00,,---,0.00,VWS V14.01,2013-02-28 13:50:00,
2013-02-28 07:55:00,16.0,-2.1,27.64,WNW,296,3.6,5.8,44,0.00,,---,0.00,VWS V14.01,2013-02-28 13:55:00,
2013-02-28 08:00:00,16.0,-2.1,27.64,WNW,297,6.3,6.3,44,0.00,,---,0.00,VWS V14.01,2013-02-28 14:00:00,
2013-02-28 08:05:00,16.0,-2.1,27.64,WNW,298,4.0,4.9,44,0.00,,---,0.00,VWS V14.01,2013-02-28 14:05:00,
2013-02-28 08:10:00,16.0,-2.1,27.64,WNW,289,6.3,6.3,44,0.00,,---,0.00,VWS V14.01,2013-02-28 14:10:00,
2013-02-28 08:15:00,16.0,-2.1,27.64,WNW,296,5.4,5.4,44,0.00,,---,0.00,VWS V14.01,2013-02-28 14:15:00,
2013-02-28 08:20:00,16.5,-1.6,27.64,WNW,290,5.8,5.8,44,0.00,,---,0.00,VWS V14.01,2013-02-28 14:20:00,
2013-02-28 08:25:00,16.9,-1.2,27.64,NW,305,3.6,3.6,44,0.00,,---,0.00,VWS V14.01,2013-02-28 14:25:00,
2013-02-28 08:30:00,17.1,-1.1,27.64,WNW,299,3.1,5.4,44,0.00,,---,0.00,VWS V14.01,2013-02-28 14:30:00,
2013-02-28 08:35:00,18.0,-0.8,27.64,WNW,303,3.6,3.6,43,0.00,,---,0.00,VWS V14.01,2013-02-28 14:35:00,
2013-02-28 08:40:00,18.5,-0.3,27.64,WNW,300,3.6,3.6,43,0.00,,---,0.00,VWS V14.01,2013-02-28 14:40:00,
2013-02-28 08:45:00,19.0,0.2,27.64,WNW,283,4.0,4.9,43,0.00,,---,0.00,VWS V14.01,2013-02-28 14:45:00,
2013-02-28 08:50:00,19.9,1.1,27.64,WNW,292,3.6,3.6,43,0.00,,---,0.00,VWS V14.01,2013-02-28 14:50:00,
2013-02-28 08:55:00,20.3,1.4,27.64,WNW,294,4.5,4.5,43,0.00,,---,0.00,VWS V14.01,2013-02-28 14:55:00,
2013-02-28 09:00:00,21.2,2.2,27.64,WNW,295,2.7,2.7,43,0.00,,---,0.00,VWS V14.01,2013-02-28 15:00:00,
2013-02-28 09:05:00,21.7,2.7,27.64,WNW,296,5.8,5.8,43,0.00,,---,0.00,VWS V14.01,2013-02-28 15:05:00,
2013-02-28 09:10:00,22.3,2.7,27.64,WNW,287,3.6,3.6,42,0.00,,---,0.00,VWS V14.01,2013-02-28 15:10:00,
2013-02-28 09:15:00,22.3,2.7,27.67,WNW,288,4.0,4.9,42,0.00,,---,0.00,VWS V14.01,2013-02-28 15:15:00,
2013-02-28 09:20:00,23.2,3.5,27.67,WNW,294,4.0,4.0,42,0.00,,---,0.00,VWS V14.01,2013-02-28 15:20:00,
2013-02-28 09:25:00,24.1,4.3,27.67,WNW,300,3.6,3.6,42,0.00,,---,0.00,VWS V14.01,2013-02-28 15:25:00,
2013-02-28 09:30:00,24.3,4.5,27.64,WNW,286,4.0,4.0,42,0.00,,---,0.00,VWS V14.01,2013-02-28 15:30:00,
2013-02-28 09:35:00,24.8,5.0,27.64,NW,310,2.7,3.1,42,0.00,,---,0.00,VWS V14.01,2013-02-28 15:35:00,
2013-02-28 09:40:00,26.6,6.6,27.64,NW,312,5.8,5.8,42,0.00,,---,0.00,VWS V14.01,2013-02-28 15:40:00,
2013-02-28 09:45:00,28.8,8.0,27.64,North,357,6.3,6.3,41,0.00,,---,0.00,VWS V14.01,2013-02-28 15:45:00,
2013-02-28 09:50:00,29.5,8.7,27.64,NW,314,3.6,5.4,41,0.00,,---,0.00,VWS V14.01,2013-02-28 15:50:00,
2013-02-28 09:55:00,30.0,9.2,27.64,NW,322,5.8,5.8,41,0.00,,---,0.00,VWS V14.01,2013-02-28 15:55:00,
2013-02-28 10:00:00,30.0,9.2,27.67,North,357,5.8,5.8,41,0.00,,---,0.00,VWS V14.01,2013-02-28 16:00:00,
2013-02-28 10:05:00,30.4,9.0,27.67,WNW,300,3.1,4.0,40,0.00,,---,0.00,VWS V14.01,2013-02-28 16:05:00,
2013-02-28 10:10:00,31.1,9.6,27.67,NW,310,5.4,5.4,40,0.00,,---,0.00,VWS V14.01,2013-02-28 16:10:00,
2013-02-28 10:15:00,30.2,9.4,27.67,WNW,289,5.4,5.4,41,0.00,,---,0.00,VWS V14.01,2013-02-28 16:15:00,
2013-02-28 10:20:00,30.2,9.4,27.67,NNW,335,5.4,5.4,41,0.00,,---,0.00,VWS V14.01,2013-02-28 16:20:00,
2013-02-28 10:25:00,30.2,9.4,27.67,NNW,329,3.1,3.1,41,0.00,,---,0.00,VWS V14.01,2013-02-28 16:25:00,
2013-02-28 10:30:00,30.2,9.4,27.67,NNW,343,5.4,5.4,41,0.00,,---,0.00,VWS V14.01,2013-02-28 16:30:00,
2013-02-28 10:35:00,30.4,9.0,27.67,North,349,8.3,8.3,40,0.00,,---,0.00,VWS V14.01,2013-02-28 16:35:00,
2013-02-28 10:40:00,30.9,9.4,27.67,NNW,340,4.0,4.0,40,0.00,,---,0.00,VWS V14.01,2013-02-28 16:40:00,
2013-02-28 10:45:00,32.4,10.8,27.64,NNW,342,3.6,3.6,40,0.00,,---,0.00,VWS V14.01,2013-02-28 16:45:00,
2013-02-28 10:50:00,32.2,10.6,27.64,WNW,301,7.6,7.6,40,0.00,,---,0.00,VWS V14.01,2013-02-28 16:50:00,
2013-02-28 10:55:00,31.8,10.3,27.64,WNW,299,6.3,6.3,40,0.00,,---,0.00,VWS V14.01,2013-02-28 16:55:00,
2013-02-28 11:00:00,33.6,11.9,27.64,NW,321,4.9,4.9,40,0.00,,---,0.00,VWS V14.01,2013-02-28 17:00:00,
2013-02-28 11:05:00,34.0,12.2,27.64,WNW,299,8.7,8.7,40,0.00,,---,0.00,VWS V14.01,2013-02-28 17:05:00,
2013-02-28 11:10:00,32.7,11.1,27.64,WNW,284,5.8,5.8,40,0.00,,---,0.00,VWS V14.01,2013-02-28 17:10:00,
2013-02-28 11:15:00,33.4,11.7,27.64,NW,307,3.6,5.8,40,0.00,,---,0.00,VWS V14.01,2013-02-28 17:15:00,
2013-02-28 11:20:00,35.8,13.8,27.64,NW,304,3.1,3.1,40,0.00,,---,0.00,VWS V14.01,2013-02-28 17:20:00,
2013-02-28 11:25:00,32.9,11.2,27.64,West,260,4.0,4.0,40,0.00,,---,0.00,VWS V14.01,2013-02-28 17:25:00,
2013-02-28 11:30:00,35.1,13.2,27.64,NW,310,3.6,3.6,40,0.00,,---,0.00,VWS V14.01,2013-02-28 17:30:00,
2013-02-28 11:35:00,34.7,12.9,27.64,North,350,4.0,4.0,40,0.00,,---,0.00,VWS V14.01,2013-02-28 17:35:00,
2013-02-28 11:40:00,35.1,13.2,27.64,West,276,6.3,6.3,40,0.00,,---,0.00,VWS V14.01,2013-02-28 17:40:00,
2013-02-28 11:45:00,35.1,13.2,27.64,West,276,6.3,6.3,40,0.00,,---,0.00,VWS V14.01,2013-02-28 17:45:00,
2013-02-28 11:50:00,36.3,14.3,27.64,West,276,6.3,6.3,40,0.00,,---,0.00,VWS V14.01,2013-02-28 17:50:00,
2013-02-28 11:55:00,36.3,14.3,27.64,West,276,6.3,6.3,40,0.00,,---,0.00,VWS V14.01,2013-02-28 17:55:00,
2013-02-28 12:00:00,36.1,14.2,27.64,West,276,6.3,6.3,40,0.00,,---,0.00,VWS V14.01,2013-02-28 18:00:00,
2013-02-28 12:05:00,37.9,15.2,27.64,West,276,6.3,6.3,39,0.00,,---,0.00,VWS V14.01,2013-02-28 18:05:00,
2013-02-28 12:10:00,37.9,15.2,27.64,West,276,6.3,6.3,39,0.00,,---,0.00,VWS V14.01,2013-02-28 18:10:00,
2013-02-28 12:15:00,39.4,16.5,27.64,NW,316,5.4,5.4,39,0.00,,---,0.00,VWS V14.01,2013-02-28 18:15:00,
2013-02-28 12:20:00,39.4,16.5,27.64,NW,316,5.4,5.4,39,0.00,,---,0.00,VWS V14.01,2013-02-28 18:20:00,
2013-02-28 12:25:00,39.4,16.5,27.64,NW,307,6.3,6.3,39,0.00,,---,0.00,VWS V14.01,2013-02-28 18:25:00,
2013-02-28 12:30:00,38.1,15.4,27.64,NNW,334,5.8,5.8,39,0.00,,---,0.00,VWS V14.01,2013-02-28 18:30:00,
2013-02-28 12:35:00,41.4,17.7,27.64,NW,320,3.6,3.6,38,0.00,,---,0.00,VWS V14.01,2013-02-28 18:35:00,
2013-02-28 12:40:00,38.7,15.9,27.64,NW,318,8.1,8.1,39,0.00,,---,0.00,VWS V14.01,2013-02-28 18:40:00,
2013-02-28 12:45:00,39.0,16.2,27.64,NW,318,8.1,8.1,39,0.00,,---,0.00,VWS V14.01,2013-02-28 18:45:00,
2013-02-28 12:50:00,40.6,17.6,27.64,NW,318,8.1,8.1,39,0.00,,---,0.00,VWS V14.01,2013-02-28 18:50:00,
2013-02-28 12:55:00,38.8,16.0,27.64,WNW,293,3.6,3.6,39,0.00,,---,0.00,VWS V14.01,2013-02-28 18:55:00,
2013-02-28 13:00:00,41.2,17.5,27.64,WNW,285,4.9,4.9,38,0.00,,---,0.00,VWS V14.01,2013-02-28 19:00:00,
2013-02-28 13:05:00,40.5,17.5,27.64,WNW,285,4.9,4.9,39,0.00,,---,0.00,VWS V14.01,2013-02-28 19:05:00,
2013-02-28 13:10:00,40.1,17.1,27.64,WNW,285,4.9,4.9,39,0.00,,---,0.00,VWS V14.01,2013-02-28 19:10:00,
2013-02-28 13:15:00,41.2,17.5,27.61,WNW,291,6.3,6.3,38,0.00,,---,0.00,VWS V14.01,2013-02-28 19:15:00,
2013-02-28 13:20:00,40.1,17.1,27.61,WNW,291,6.3,6.3,39,0.00,,---,0.00,VWS V14.01,2013-02-28 19:20:00,
2013-02-28 13:25:00,40.6,17.6,27.61,WNW,289,4.9,6.3,39,0.00,,---,0.00,VWS V14.01,2013-02-28 19:25:00,
2013-02-28 13:30:00,40.3,17.3,27.61,WNW,295,3.6,3.6,39,0.00,,---,0.00,VWS V14.01,2013-02-28 19:30:00,
2013-02-28 13:35:00,41.0,17.4,27.64,WNW,288,5.4,5.4,38,0.00,,---,0.00,VWS V14.01,2013-02-28 19:35:00,
2013-02-28 13:40:00,41.2,17.5,27.64,WNW,288,5.4,5.4,38,0.00,,---,0.00,VWS V14.01,2013-02-28 19:40:00,
2013-02-28 13:45:00,42.1,18.3,27.61,WNW,288,5.4,5.4,38,0.00,,---,0.00,VWS V14.01,2013-02-28 19:45:00,
2013-02-28 13:50:00,42.4,18.6,27.61,WNW,286,5.4,5.4,38,0.00,,---,0.00,VWS V14.01,2013-02-28 19:50:00,
2013-02-28 13:55:00,42.3,18.5,27.61,WNW,290,4.9,4.9,38,0.00,,---,0.00,VWS V14.01,2013-02-28 19:55:00,
2013-02-28 14:00:00,41.5,17.8,27.61,WNW,290,5.4,5.4,38,0.00,,---,0.00,VWS V14.01,2013-02-28 20:00:00,
2013-02-28 14:05:00,40.5,17.5,27.61,WNW,290,5.4,5.4,39,0.00,,---,0.00,VWS V14.01,2013-02-28 20:05:00,
2013-02-28 14:10:00,41.4,17.7,27.61,WNW,290,5.4,5.4,38,0.00,,---,0.00,VWS V14.01,2013-02-28 20:10:00,
2013-02-28 14:15:00,41.9,18.2,27.61,WNW,290,5.4,5.4,38,0.00,,---,0.00,VWS V14.01,2013-02-28 20:15:00,
2013-02-28 14:20:00,43.0,19.1,27.61,WNW,290,5.4,5.4,38,0.00,,---,0.00,VWS V14.01,2013-02-28 20:20:00,
2013-02-28 14:25:00,41.7,18.0,27.61,West,267,4.0,4.0,38,0.00,,---,0.00,VWS V14.01,2013-02-28 20:25:00,
2013-02-28 14:30:00,43.3,19.5,27.61,NW,304,5.8,5.8,38,0.00,,---,0.00,VWS V14.01,2013-02-28 20:30:00,
2013-02-28 14:35:00,43.7,19.8,27.61,NW,315,3.1,3.1,38,0.00,,---,0.00,VWS V14.01,2013-02-28 20:35:00,
2013-02-28 14:40:00,43.0,19.1,27.61,WNW,286,4.0,4.0,38,0.00,,---,0.00,VWS V14.01,2013-02-28 20:40:00,
2013-02-28 14:45:00,42.4,18.6,27.61,WNW,291,5.8,5.8,38,0.00,,---,0.00,VWS V14.01,2013-02-28 20:45:00,
2013-02-28 14:50:00,43.5,19.6,27.61,WNW,301,5.4,5.4,38,0.00,,---,0.00,VWS V14.01,2013-02-28 20:50:00,
2013-02-28 14:55:00,43.7,19.8,27.61,WNW,300,4.0,4.0,38,0.00,,---,0.00,VWS V14.01,2013-02-28 20:55:00,
2013-02-28 15:00:00,42.8,19.0,27.61,West,266,3.6,4.0,38,0.00,,---,0.00,VWS V14.01,2013-02-28 21:00:00,
2013-02-28 15:05:00,42.6,18.8,27.61,NW,326,4.0,4.0,38,0.00,,---,0.00,VWS V14.01,2013-02-28 21:05:00,
2013-02-28 15:10:00,44.4,20.4,27.61,NW,304,3.6,4.0,38,0.00,,---,0.00,VWS V14.01,2013-02-28 21:10:00,
2013-02-28 15:15:00,43.3,19.5,27.61,WNW,289,3.1,3.1,38,0.00,,---,0.00,VWS V14.01,2013-02-28 21:15:00,
2013-02-28 15:20:00,45.3,21.2,27.61,WNW,297,3.1,3.1,38,0.00,,---,0.00,VWS V14.01,2013-02-28 21:20:00,
2013-02-28 15:25:00,44.6,20.6,27.61,WNW,292,4.9,4.9,38,0.00,,---,0.00,VWS V14.01,2013-02-28 21:25:00,
2013-02-28 15:30:00,43.9,19.9,27.61,WNW,288,4.0,4.0,38,0.00,,---,0.00,VWS V14.01,2013-02-28 21:30:00,
2013-02-28 15:35:00,43.9,19.9,27.61,WNW,301,4.0,4.0,38,0.00,,---,0.00,VWS V14.01,2013-02-28 21:35:00,
2013-02-28 15:40:00,44.6,20.6,27.61,West,280,3.6,3.6,38,0.00,,---,0.00,VWS V14.01,2013-02-28 21:40:00,
2013-02-28 15:45:00,43.5,19.6,27.61,WNW,298,3.1,3.1,38,0.00,,---,0.00,VWS V14.01,2013-02-28 21:45:00,
2013-02-28 15:50:00,44.4,20.4,27.61,NW,306,4.0,4.9,38,0.00,,---,0.00,VWS V14.01,2013-02-28 21:50:00,
2013-02-28 15:55:00,44.6,20.6,27.61,NW,305,5.4,5.8,38,0.00,,---,0.00,VWS V14.01,2013-02-28 21:55:00,
2013-02-28 16:00:00,43.7,19.8,27.61,NW,305,5.4,5.4,38,0.00,,---,0.00,VWS V14.01,2013-02-28 22:00:00,
2013-02-28 16:05:00,44.6,20.6,27.61,WNW,287,4.0,4.0,38,0.00,,---,0.00,VWS V14.01,2013-02-28 22:05:00,
2013-02-28 16:10:00,44.6,20.6,27.61,WNW,290,3.1,3.1,38,0.00,,---,0.00,VWS V14.01,2013-02-28 22:10:00,
2013-02-28 16:15:00,43.9,19.9,27.61,WNW,298,4.0,4.0,38,0.00,,---,0.00,VWS V14.01,2013-02-28 22:15:00,
2013-02-28 16:20:00,44.1,20.1,27.61,NW,315,2.7,4.0,38,0.00,,---,0.00,VWS V14.01,2013-02-28 22:20:00,
2013-02-28 16:25:00,45.0,20.9,27.61,WNW,299,3.6,3.6,38,0.00,,---,0.00,VWS V14.01,2013-02-28 22:25:00,
2013-02-28 16:30:00,45.5,21.4,27.61,NNW,344,3.6,3.6,38,0.00,,---,0.00,VWS V14.01,2013-02-28 22:30:00,
2013-02-28 16:35:00,45.7,21.5,27.61,NNW,344,2.7,2.7,38,0.00,,---,0.00,VWS V14.01,2013-02-28 22:35:00,
2013-02-28 16:40:00,44.4,20.4,27.61,North,0,3.6,3.6,38,0.00,,---,0.00,VWS V14.01,2013-02-28 22:40:00,
2013-02-28 16:45:00,43.7,19.8,27.58,North,0,4.0,4.0,38,0.00,,---,0.00,VWS V14.01,2013-02-28 22:45:00,
2013-02-28 16:50:00,45.9,21.7,27.58,NW,320,2.7,2.7,38,0.00,,---,0.00,VWS V14.01,2013-02-28 22:50:00,
2013-02-28 16:55:00,44.8,20.7,27.58,North,353,2.7,2.7,38,0.00,,---,0.00,VWS V14.01,2013-02-28 22:55:00,
2013-02-28 17:00:00,43.7,19.8,27.58,North,353,3.1,3.1,38,0.00,,---,0.00,VWS V14.01,2013-02-28 23:00:00,
2013-02-28 17:05:00,44.6,20.6,27.58,NNW,345,0.0,2.7,38,0.00,,---,0.00,VWS V14.01,2013-02-28 23:05:00,
2013-02-28 17:10:00,44.4,20.4,27.58,North,353,2.7,2.7,38,0.00,,---,0.00,VWS V14.01,2013-02-28 23:10:00,
2013-02-28 17:15:00,43.9,19.9,27.58,North,353,2.7,2.7,38,0.00,,---,0.00,VWS V14.01,2013-02-28 23:15:00,
2013-02-28 17:20:00,44.1,20.1,27.58,North,353,2.2,2.2,38,0.00,,---,0.00,VWS V14.01,2013-02-28 23:20:00,
2013-02-28 17:25:00,43.5,19.6,27.58,North,353,2.7,2.7,38,0.00,,---,0.00,VWS V14.01,2013-02-28 23:25:00,
2013-02-28 17:30:00,43.5,19.6,27.58,North,353,2.2,2.2,38,0.00,,---,0.00,VWS V14.01,2013-02-28 23:30:00,
2013-02-28 17:35:00,41.5,17.8,27.58,North,353,2.2,2.2,38,0.00,,---,0.00,VWS V14.01,2013-02-28 23:35:00,
2013-02-28 17:40:00,41.9,18.2,27.58,North,353,0.0,0.0,38,0.00,,---,0.00,VWS V14.01,2013-02-28 23:40:00,
2013-02-28 17:45:00,41.4,17.7,27.58,North,353,0.0,0.0,38,0.00,,---,0.00,VWS V14.01,2013-02-28 23:45:00,
2013-02-28 17:50:00,40.6,17.6,27.58,North,353,0.0,0.0,39,0.00,,---,0.00,VWS V14.01,2013-02-28 23:50:00,
2013-02-28 17:55:00,40.1,17.1,27.58,North,353,0.0,0.0,39,0.00,,---,0.00,VWS V14.01,2013-02-28 23:55:00,
2013-02-28 18:00:00,40.1,17.1,27.58,North,353,0.0,0.0,39,0.00,,---,0.00,VWS V14.01,2013-03-01 00:00:00,
2013-02-28 18:05:00,40.1,17.1,27.58,North,353,0.0,0.0,39,0.00,,---,0.00,VWS V14.01,2013-03-01 00:05:00,
2013-02-28 18:10:00,35.6,13.7,27.58,North,353,0.0,0.0,40,0.00,,---,0.00,VWS V14.01,2013-03-01 00:10:00,
2013-02-28 18:15:00,35.2,13.4,27.61,North,353,0.0,0.0,40,0.00,,---,0.00,VWS V14.01,2013-03-01 00:15:00,
2013-02-28 18:20:00,32.5,10.9,27.61,North,353,0.0,0.0,40,0.00,,---,0.00,VWS V14.01,2013-03-01 00:20:00,
2013-02-28 18:25:00,30.9,9.4,27.61,North,353,0.0,0.0,40,0.00,,---,0.00,VWS V14.01,2013-03-01 00:25:00,
2013-02-28 18:30:00,29.8,9.0,27.61,North,353,0.0,0.0,41,0.00,,---,0.00,VWS V14.01,2013-03-01 00:30:00,
2013-02-28 18:35:00,29.5,8.7,27.61,North,353,0.0,0.0,41,0.00,,---,0.00,VWS V14.01,2013-03-01 00:35:00,
2013-02-28 18:40:00,29.7,8.9,27.61,North,353,0.0,0.0,41,0.00,,---,0.00,VWS V14.01,2013-03-01 00:40:00,
2013-02-28 18:45:00,29.7,8.9,27.61,North,353,0.0,0.0,41,0.00,,---,0.00,VWS V14.01,2013-03-01 00:45:00,
2013-02-28 18:50:00,28.6,7.9,27.61,North,353,0.0,0.0,41,0.00,,---,0.00,VWS V14.01,2013-03-01 00:50:00,
2013-02-28 18:55:00,28.0,7.4,27.61,North,353,0.0,0.0,41,0.00,,---,0.00,VWS V14.01,2013-03-01 00:55:00,
2013-02-28 19:00:00,27.9,7.2,27.61,North,353,0.0,0.0,41,0.00,,---,0.00,VWS V14.01,2013-03-01 01:00:00,
2013-02-28 19:05:00,27.7,7.1,27.61,North,353,0.0,0.0,41,0.00,,---,0.00,VWS V14.01,2013-03-01 01:05:00,
2013-02-28 19:10:00,27.5,6.9,27.61,North,353,0.0,0.0,41,0.00,,---,0.00,VWS V14.01,2013-03-01 01:10:00,
2013-02-28 19:15:00,27.1,6.6,27.61,North,353,0.0,0.0,41,0.00,,---,0.00,VWS V14.01,2013-03-01 01:15:00,
2013-02-28 19:20:00,26.8,6.2,27.61,North,353,0.0,0.0,41,0.00,,---,0.00,VWS V14.01,2013-03-01 01:20:00,
2013-02-28 19:25:00,26.8,6.2,27.61,North,353,0.0,0.0,41,0.00,,---,0.00,VWS V14.01,2013-03-01 01:25:00,
2013-02-28 19:30:00,26.6,6.6,27.61,North,353,0.0,0.0,42,0.00,,---,0.00,VWS V14.01,2013-03-01 01:30:00,
2013-02-28 19:35:00,27.0,6.4,27.61,North,353,3.1,3.1,41,0.00,,---,0.00,VWS V14.01,2013-03-01 01:35:00,
2013-02-28 19:40:00,28.8,8.0,27.61,NE,51,6.3,6.3,41,0.00,,---,0.00,VWS V14.01,2013-03-01 01:40:00,
2013-02-28 19:45:00,28.4,7.7,27.61,NE,52,2.2,2.2,41,0.00,,---,0.00,VWS V14.01,2013-03-01 01:45:00,
2013-02-28 19:50:00,27.5,6.9,27.61,NE,52,5.4,5.4,41,0.00,,---,0.00,VWS V14.01,2013-03-01 01:50:00,
2013-02-28 19:55:00,27.0,6.4,27.61,NE,52,4.5,4.5,41,0.00,,---,0.00,VWS V14.01,2013-03-01 01:55:00,
2013-02-28 20:00:00,26.2,6.3,27.61,NE,52,2.2,4.0,42,0.00,,---,0.00,VWS V14.01,2013-03-01 02:00:00,
2013-02-28 20:05:00,25.5,5.6,27.61,NE,52,2.2,2.7,42,0.00,,---,0.00,VWS V14.01,2013-03-01 02:05:00,
2013-02-28 20:10:00,25.5,5.6,27.61,NE,52,2.2,2.2,42,0.00,,---,0.00,VWS V14.01,2013-03-01 02:10:00,
2013-02-28 20:15:00,24.4,4.7,27.61,SSE,149,4.0,4.0,42,0.00,,---,0.00,VWS V14.01,2013-03-01 02:15:00,
2013-02-28 20:20:00,24.1,4.3,27.61,SSE,149,0.0,0.0,42,0.00,,---,0.00,VWS V14.01,2013-03-01 02:20:00,
2013-02-28 20:25:00,23.7,4.5,27.61,SSE,149,0.0,0.0,43,0.00,,---,0.00,VWS V14.01,2013-03-01 02:25:00,
2013-02-28 20:30:00,24.3,5.0,27.61,SSE,149,0.0,0.0,43,0.00,,---,0.00,VWS V14.01,2013-03-01 02:30:00,
2013-02-28 20:35:00,24.6,5.3,27.61,SSE,149,0.0,0.0,43,0.00,,---,0.00,VWS V14.01,2013-03-01 02:35:00,
2013-02-28 20:40:00,24.4,5.2,27.61,SSE,149,2.7,2.7,43,0.00,,---,0.00,VWS V14.01,2013-03-01 02:40:00,
2013-02-28 20:45:00,23.9,4.7,27.61,SSE,149,0.0,0.0,43,0.00,,---,0.00,VWS V14.01,2013-03-01 02:45:00,
2013-02-28 20:50:00,23.2,4.0,27.61,SSE,149,0.0,0.0,43,0.00,,---,0.00,VWS V14.01,2013-03-01 02:50:00,
2013-02-28 20:55:00,23.2,4.0,27.61,SSE,149,2.2,2.2,43,0.00,,---,0.00,VWS V14.01,2013-03-01 02:55:00,
2013-02-28 21:00:00,23.9,4.7,27.61,SSE,149,0.0,2.7,43,0.00,,---,0.00,VWS V14.01,2013-03-01 03:00:00,
2013-02-28 21:05:00,23.5,4.3,27.61,SSE,149,3.1,3.1,43,0.00,,---,0.00,VWS V14.01,2013-03-01 03:05:00,
2013-02-28 21:10:00,24.6,5.8,27.61,ENE,58,3.6,3.6,44,0.00,,---,0.00,VWS V14.01,2013-03-01 03:10:00,
2013-02-28 21:15:00,24.8,5.5,27.61,NE,52,5.4,5.4,43,0.00,,---,0.00,VWS V14.01,2013-03-01 03:15:00,
2013-02-28 21:20:00,24.3,4.5,27.61,NE,53,4.0,4.0,42,0.00,,---,0.00,VWS V14.01,2013-03-01 03:20:00,
2013-02-28 21:25:00,23.5,3.8,27.61,NE,53,2.7,3.6,42,0.00,,---,0.00,VWS V14.01,2013-03-01 03:25:00,
2013-02-28 21:30:00,23.4,4.2,27.61,NE,53,2.7,2.7,43,0.00,,---,0.00,VWS V14.01,2013-03-01 03:30:00,
2013-02-28 21:35:00,23.2,4.0,27.61,NE,53,3.1,3.1,43,0.00,,---,0.00,VWS V14.01,2013-03-01 03:35:00,
2013-02-28 21:40:00,23.2,4.0,27.61,NE,53,2.7,3.1,43,0.00,,---,0.00,VWS V14.01,2013-03-01 03:40:00,
2013-02-28 21:45:00,23.0,3.8,27.64,NE,53,3.1,3.1,43,0.00,,---,0.00,VWS V14.01,2013-03-01 03:45:00,
2013-02-28 21:50:00,22.8,3.7,27.64,NE,53,4.0,4.0,43,0.00,,---,0.00,VWS V14.01,2013-03-01 03:50:00,
2013-02-28 21:55:00,22.5,3.4,27.64,NE,53,0.0,0.0,43,0.00,,---,0.00,VWS V14.01,2013-03-01 03:55:00,
2013-02-28 22:00:00,21.7,2.7,27.64,NE,53,0.0,0.0,43,0.00,,---,0.00,VWS V14.01,2013-03-01 04:00:00,
2013-02-28 22:05:00,22.5,3.9,27.64,NE,53,0.0,0.0,44,0.00,,---,0.00,VWS V14.01,2013-03-01 04:05:00,
2013-02-28 22:10:00,23.0,4.8,27.64,NE,53,3.6,3.6,45,0.00,,---,0.00,VWS V14.01,2013-03-01 04:10:00,
2013-02-28 22:15:00,23.4,4.7,27.64,NE,53,2.7,2.7,44,0.00,,---,0.00,VWS V14.01,2013-03-01 04:15:00,
2013-02-28 22:20:00,23.4,4.7,27.64,NE,53,3.1,3.1,44,0.00,,---,0.00,VWS V14.01,2013-03-01 04:20:00,
2013-02-28 22:25:00,23.4,4.2,27.64,NE,53,0.0,0.0,43,0.00,,---,0.00,VWS V14.01,2013-03-01 04:25:00,
2013-02-28 22:30:00,23.5,4.3,27.64,NE,53,3.1,3.1,43,0.00,,---,0.00,VWS V14.01,2013-03-01 04:30:00,
2013-02-28 22:35:00,23.2,4.0,27.64,NE,53,0.0,0.0,43,0.00,,---,0.00,VWS V14.01,2013-03-01 04:35:00,
2013-02-28 22:40:00,23.4,4.2,27.64,NE,53,0.0,0.0,43,0.00,,---,0.00,VWS V14.01,2013-03-01 04:40:00,
2013-02-28 22:45:00,23.5,4.3,27.64,NE,53,0.0,0.0,43,0.00,,---,0.00,VWS V14.01,2013-03-01 04:45:00,
2013-02-28 22:50:00,23.4,4.2,27.64,NE,53,0.0,0.0,43,0.00,,---,0.00,VWS V14.01,2013-03-01 04:50:00,
2013-02-28 22:55:00,22.8,3.7,27.64,NE,53,0.0,0.0,43,0.00,,---,0.00,VWS V14.01,2013-03-01 04:55:00,
2013-02-28 23:00:00,22.6,3.5,27.64,NE,53,0.0,0.0,43,0.00,,---,0.00,VWS V14.01,2013-03-01 05:00:00,
2013-02-28 23:05:00,22.3,3.2,27.64,NE,53,0.0,0.0,43,0.00,,---,0.00,VWS V14.01,2013-03-01 05:05:00,
2013-02-28 23:06:00,22.3,3.2,27.64,NE,53,0.0,0.0,43,0.00,,---,0.00,VWS V14.01,2013-03-01 05:06:00,
2013-02-28 23:11:00,22.3,3.2,27.64,NE,53,0.0,0.0,43,0.00,,---,0.00,VWS V14.01,2013-03-01 05:11:00,
2013-02-28 23:16:00,22.5,3.4,27.64,NE,53,0.0,0.0,43,0.00,,---,0.00,VWS V14.01,2013-03-01 05:16:00,
2013-02-28 23:21:00,22.5,3.4,27.64,NE,53,0.0,0.0,43,0.00,,---,0.00,VWS V14.01,2013-03-01 05:21:00,
2013-02-28 23:26:00,22.5,3.4,27.64,NE,53,0.0,0.0,43,0.00,,---,0.00,VWS V14.01,2013-03-01 05:26:00,
2013-02-28 23:31:00,22.1,3.0,27.61,NE,53,0.0,0.0,43,0.00,,---,0.00,VWS V14.01,2013-03-01 05:31:00,
2013-02-28 23:36:00,22.5,3.4,27.61,NE,53,0.0,0.0,43,0.00,,---,0.00,VWS V14.01,2013-03-01 05:36:00,
2013-02-28 23:41:00,22.3,3.2,27.61,NE,53,0.0,0.0,43,0.00,,---,0.00,VWS V14.01,2013-03-01 05:41:00,
2013-02-28 23:46:00,22.1,3.0,27.61,NE,53,0.0,0.0,43,0.00,,---,0.00,VWS V14.01,2013-03-01 05:46:00,
2013-02-28 23:51:00,21.7,2.7,27.61,NE,53,0.0,0.0,43,0.00,,---,0.00,VWS V14.01,2013-03-01 05:51:00,
2013-02-28 23:56:00,21.9,2.9,27.61,NE,53,0.0,0.0,43,0.00,,---,0.00,VWS V14.01,2013-03-01 05:56:00,